Location: Le Domaine
(47.0333°N, 76.5361°W)
Time: 12:02:26
(UTC-05:00)

S-56A Canister/Altair - Pass Details

Date: 27 November 2019
Orbit: 633 x 2499 km, 38.9° (Epoch: 04 December)

Event Time Altitude Azimuth Distance (km) Brightness Sun altitude
Rises 13:50:07 0° 225° (SW) 6,131 13.6 16.9°
Reaches altitude 10° 13:54:39 10° 219° (SW) 5,021 14.0 16.6°
Maximum altitude 14:07:03 40° 157° (SSE) 2,736 11.0 15.5°
Drops below altitude 10° 14:16:22 10° 93° (E) 3,785 10.8 14.6°
Sets 14:19:15 0° 86° (E) 4,525 11.1 14.3°
